Temp
65 67 75 77 78 78 78 77 77 76 77 77 77 77 77 77 77 77 77 77 77 78 78 77 76 75 75 75 74 74 74 74 74 75 75 76 77 77 76 75 74 74 77
67 69 73 76 77 77 77 76 76 76 77 77 77 77 77 77 76 76 76 76 77 78 78 77 75 74 74 73 74 74 74 74 73 73 73 73 75 76 76 75 75 75 77
67 70 72 75 77 77 76 76 75 76 77 77 77 77 77 76 76 76 76 76 77 77 77 76 74 73 73 73 73 73 74 73 72 73 72 68 70 76 76 75 75 76 76
68 70 72 73 76 76 76 75 75 76 76 77 77 76 76 76 76 76 76 76 76 77 76 75 73 73 72 72 72 73 73 72 71 70 67 68 72 76 76 76 75 75 75
67 69 71 72 75 76 76 75 75 75 76 77 76 76 76 76 76 76 75 75 75 76 75 74 73 72 71 71 72 72 73 71 68 67 66 67 68 75 76 75 74 73 73
65 67 70 73 75 75 75 75 75 76 76 76 76 76 76 76 75 75 75 75 75 75 74 73 72 71 70 70 71 71 71 69 66 62 63 67 68 76 76 74 73 73 72
64 66 68 72 74 75 75 75 75 75 76 76 76 76 76 75 74 74 74 74 75 74 74 72 71 70 69 69 70 70 69 66 59 59 61 63 67 76 75 75 74 74 74
64 66 67 68 70 73 74 74 74 75 75 75 75 75 76 75 74 74 74 74 75 76 76 73 70 69 68 68 69 68 66 64 60 58 58 60 70 74 74 74 74 75 75
63 64 65 67 68 68 70 71 72 73 73 74 74 74 74 73 73 73 73 74 74 75 74 73 70 68 68 67 67 66 64 63 56 57 60 58 69 73 72 72 72 73 73
61 63 63 64 69 70 69 66 68 70 71 71 71 70 68 69 70 70 68 71 73 73 73 72 69 68 67 66 65 64 62 61 54 55 56 59 70 72 71 71 71 71 71
60 60 61 63 67 69 71 68 65 66 68 68 68 67 67 66 68 67 65 68 71 71 71 70 68 67 63 60 62 62 59 51 51 52 53 63 68 71 71 71 70 71 71
51 54 55 58 63 66 68 69 68 69 67 67 68 68 68 67 65 65 63 65 67 67 69 69 68 62 55 48 47 53 48 49 49 50 50 63 67 70 71 70 70 70 71
48 51 52 53 55 64 67 68 67 68 67 67 68 69 68 65 63 63 62 63 63 62 61 61 55 51 50 47 47 47 47 47 45 47 51 61 64 67 70 71 71 70 70
47 49 50 50 51 57 66 68 66 66 66 66 66 65 65 63 62 61 61 61 61 60 59 57 54 50 49 48 47 47 47 46 46 46 48 56 61 65 68 71 71 70 70
46 47 48 49 50 52 59 64 64 65 66 66 65 65 64 62 62 61 61 60 59 58 58 56 52 50 48 48 47 47 47 46 46 46 45 53 59 63 66 70 71 71 71
46 46 48 49 51 51 56 61 62 65 65 65 64 64 63 62 60 59 59 57 58 58 57 55 53 49 47 46 47 46 46 46 46 46 46 46 56 59 63 67 71 71 71
44 45 47 51 51 53 57 59 60 62 62 62 62 62 61 62 60 60 59 58 58 56 55 53 51 50 49 46 45 45 44 45 45 45 45 45 47 54 58 63 65 68 70
42 44 46 49 49 54 56 58 58 60 60 60 61 61 61 61 61 59 58 57 57 55 54 52 50 49 49 48 46 43 42 43 43 44 44 45 45 47 51 57 61 63 65
41 43 44 46 46 51 55 56 57 56 55 53 53 55 57 58 58 58 56 55 55 54 52 51 49 49 48 48 47 46 42 41 42 44 43 44 44 45 44 50 55 56 59
40 42 43 45 45 47 52 54 53 52 50 50 49 50 50 51 54 55 54 53 53 52 50 49 48 46 46 46 48 47 42 41 41 40 41 43 42 43 43 43 43 45 54
40 41 41 42 42 45 44 43 48 43 47 45 45 45 47 47 49 49 51 51 51 50 49 48 46 46 46 45 46 46 46 43 41 40 39 39 40 41 41 42 42 42 44
37 37 40 41 41 42 42 41 41 41 42 44 43 42 43 43 43 45 45 45 46 47 45 44 44 43 44 45 45 42 40 41 41 40 38 39 39 39 40 41 40 41 41
35 34 38 39 40 41 42 42 41 40 39 40 39 40 40 41 41 41 41 41 41 43 42 42 45 43 43 43 45 45 41 39 37 39 39 38 38 37 39 39 40 41 41
34 35 36 38 39 40 41 41 39 37 36 34 35 36 38 38 38 39 39 39 39 39 38 39 41 40 40 38 42 44 42 41 38 34 38 40 38 38 37 37 38 39 40
34 33 34 36 37 37 37 39 38 36 35 33 34 35 35 36 36 36 36 36 36 37 37 37 37 37 38 37 37 40 40 40 39 37 36 35 38 40 38 37 38 37 39
33 33 33 35 34 35 36 36 35 34 33 34 32 32 32 33 34 34 34 33 34 34 34 34 34 35 34 35 35 35 36 38 38 38 37 38 37 39 37 38 36 37 37
MSLP
1016.87 1016.81 1016.90 1017.07 1017.30 1017.54 1017.74 1017.93 1018.12 1018.27 1018.48 1018.72 1018.81 1018.92 1019.09 1019.22 1019.32 1019.40 1019.49 1019.60 1019.64 1019.59 1019.72 1019.97 1020.19 1020.25 1020.29 1020.32 1020.33 1020.27 1020.28 1020.10 1019.98 1019.98 1019.93 1019.88 1019.88 1019.87 1020.04 1019.97 1019.92 1019.80 1019.58
1016.03 1016.45 1016.70 1017.02 1017.39 1017.66 1017.88 1018.15 1018.36 1018.48 1018.64 1018.86 1019.03 1019.20 1019.41 1019.53 1019.61 1019.70 1019.78 1019.85 1019.89 1019.95 1020.13 1020.34 1020.52 1020.60 1020.63 1020.71 1020.71 1020.60 1020.54 1020.33 1020.37 1020.39 1020.36 1020.29 1020.28 1020.30 1020.31 1020.24 1020.13 1020.00 1019.90
1016.22 1016.42 1016.63 1016.93 1017.28 1017.67 1018.02 1018.30 1018.52 1018.70 1018.84 1018.97 1019.14 1019.32 1019.55 1019.66 1019.77 1019.90 1019.96 1020.09 1020.16 1020.24 1020.46 1020.68 1020.90 1020.92 1020.95 1020.89 1020.91 1020.86 1020.83 1020.82 1020.64 1020.66 1020.68 1020.76 1020.72 1020.57 1020.58 1020.54 1020.54 1020.44 1020.34
1016.23 1016.45 1016.72 1016.97 1017.24 1017.54 1017.85 1018.19 1018.47 1018.69 1018.89 1019.08 1019.26 1019.49 1019.67 1019.75 1019.91 1020.08 1020.22 1020.36 1020.44 1020.52 1020.59 1021.06 1021.24 1021.29 1021.30 1021.22 1021.23 1021.14 1021.02 1021.05 1020.98 1020.94 1021.07 1021.05 1020.86 1020.73 1020.81 1020.83 1020.85 1020.88 1020.91
1016.37 1016.47 1016.68 1016.97 1017.24 1017.53 1017.80 1018.07 1018.39 1018.67 1018.85 1019.07 1019.30 1019.51 1019.68 1019.89 1020.03 1020.18 1020.35 1020.51 1020.66 1020.76 1020.86 1021.40 1021.60 1021.64 1021.65 1021.58 1021.53 1021.34 1021.26 1021.30 1021.31 1021.24 1021.15 1021.17 1021.09 1020.88 1020.99 1021.15 1021.19 1021.13 1021.28
1016.68 1016.78 1016.93 1017.14 1017.36 1017.62 1017.82 1018.09 1018.44 1018.74 1018.95 1019.17 1019.37 1019.58 1019.76 1019.97 1020.14 1020.33 1020.50 1020.61 1020.68 1020.92 1021.12 1021.58 1021.83 1021.94 1021.93 1021.90 1021.89 1021.65 1021.58 1021.59 1021.60 1021.54 1021.44 1021.31 1021.19 1020.99 1021.08 1021.32 1021.30 1021.38 1021.41
1016.75 1016.89 1017.07 1017.26 1017.46 1017.70 1017.96 1018.22 1018.52 1018.82 1019.07 1019.30 1019.54 1019.71 1019.82 1020.07 1020.33 1020.51 1020.63 1020.76 1020.89 1020.95 1021.33 1021.79 1021.98 1022.10 1022.12 1022.09 1021.96 1021.87 1021.85 1021.89 1022.08 1021.98 1021.81 1021.70 1021.46 1021.27 1021.45 1021.44 1021.40 1021.38 1021.39
1016.60 1016.69 1016.90 1017.13 1017.41 1017.68 1017.94 1018.22 1018.54 1018.82 1019.06 1019.27 1019.46 1019.62 1019.81 1020.11 1020.40 1020.62 1020.71 1020.80 1020.87 1020.97 1021.33 1021.83 1022.19 1022.32 1022.38 1022.39 1022.25 1022.10 1022.03 1022.07 1022.24 1022.25 1022.19 1022.08 1021.76 1021.63 1021.67 1021.66 1021.63 1021.52 1021.58
1017.02 1017.30 1017.42 1017.47 1017.55 1017.60 1017.78 1018.06 1018.39 1018.70 1018.97 1019.20 1019.39 1019.61 1019.81 1020.06 1020.33 1020.59 1020.76 1020.89 1021.04 1021.19 1021.41 1021.81 1022.32 1022.52 1022.65 1022.64 1022.52 1022.42 1022.46 1022.44 1022.48 1022.59 1022.37 1022.39 1022.06 1022.00 1021.92 1021.93 1021.95 1021.84 1021.94
1017.50 1017.51 1017.62 1017.74 1017.83 1017.97 1018.09 1018.24 1018.41 1018.58 1018.78 1019.03 1019.29 1019.59 1019.84 1020.05 1020.31 1020.59 1020.84 1021.08 1021.23 1021.40 1021.61 1021.89 1022.37 1022.61 1022.79 1022.93 1022.90 1022.86 1022.83 1022.86 1022.93 1022.91 1022.82 1022.61 1022.26 1022.26 1022.21 1022.20 1022.29 1022.20 1022.22
1018.12 1018.08 1017.84 1017.74 1017.81 1017.93 1017.99 1018.19 1018.45 1018.57 1018.77 1018.96 1019.17 1019.47 1019.69 1020.10 1020.38 1020.69 1021.02 1021.19 1021.31 1021.50 1021.73 1022.03 1022.46 1022.73 1022.98 1023.26 1023.22 1023.21 1023.28 1023.39 1023.39 1023.30 1023.17 1022.89 1022.61 1022.49 1022.40 1022.39 1022.43 1022.33 1022.28
1019.36 1018.90 1018.67 1018.17 1017.85 1017.80 1017.92 1018.14 1018.44 1018.60 1018.84 1018.98 1019.06 1019.26 1019.51 1019.79 1020.09 1020.59 1021.01 1021.23 1021.46 1021.66 1021.88 1022.17 1022.58 1023.00 1023.37 1023.72 1023.75 1023.62 1023.74 1023.67 1023.70 1023.70 1023.54 1023.15 1022.88 1022.70 1022.55 1022.38 1022.45 1022.38 1022.30
1020.38 1019.75 1019.38 1019.02 1018.44 1017.69 1017.54 1017.77 1018.16 1018.40 1018.73 1019.02 1018.97 1019.21 1019.57 1020.01 1020.41 1020.68 1021.10 1021.41 1021.61 1021.79 1022.14 1022.44 1022.96 1023.31 1023.55 1023.78 1023.96 1024.01 1023.98 1023.99 1024.03 1023.91 1023.78 1023.46 1023.14 1022.86 1022.60 1022.32 1022.52 1022.37 1022.32
1020.62 1020.15 1019.58 1019.14 1018.76 1018.06 1017.49 1017.44 1017.84 1018.22 1018.54 1018.85 1019.12 1019.31 1019.72 1020.13 1020.50 1020.83 1021.14 1021.42 1021.68 1021.90 1022.17 1022.48 1022.94 1023.30 1023.56 1023.79 1023.92 1023.98 1024.01 1024.10 1024.13 1024.02 1023.90 1023.65 1023.49 1023.23 1022.74 1022.44 1022.38 1022.40 1022.37
1020.95 1020.39 1019.80 1019.15 1018.69 1018.24 1017.70 1017.69 1017.96 1018.34 1018.60 1018.84 1019.06 1019.24 1019.58 1020.02 1020.25 1020.55 1020.92 1021.31 1021.66 1021.88 1022.05 1022.35 1022.84 1023.34 1023.58 1023.68 1023.80 1023.94 1024.04 1024.08 1024.11 1024.14 1024.09 1023.83 1023.58 1023.24 1022.94 1022.57 1022.33 1022.28 1022.29
1021.37 1020.70 1020.04 1019.25 1018.35 1017.88 1017.76 1017.75 1018.19 1018.47 1018.79 1018.99 1019.24 1019.39 1019.57 1019.88 1020.25 1020.50 1020.78 1021.21 1021.53 1021.76 1022.08 1022.44 1022.75 1023.21 1023.60 1023.89 1023.94 1023.95 1023.95 1023.98 1023.99 1023.99 1023.90 1023.77 1023.55 1023.38 1023.13 1022.67 1022.29 1022.20 1022.22
1021.76 1021.02 1020.28 1019.50 1018.79 1017.82 1017.59 1018.14 1018.63 1018.85 1019.21 1019.58 1019.85 1019.91 1019.98 1020.04 1020.10 1020.26 1020.56 1020.93 1021.10 1021.55 1021.95 1022.44 1023.05 1023.25 1023.47 1023.83 1024.13 1024.24 1024.32 1024.28 1024.18 1024.08 1024.05 1023.95 1023.76 1023.50 1023.25 1022.89 1022.66 1022.50 1022.22
1022.50 1021.60 1020.36 1019.70 1019.22 1018.67 1018.38 1018.55 1019.05 1019.56 1019.88 1020.13 1020.30 1020.31 1020.30 1020.33 1020.46 1020.66 1020.96 1021.28 1021.49 1021.75 1022.02 1022.34 1022.85 1023.36 1023.68 1023.90 1024.15 1024.32 1024.37 1024.31 1024.27 1024.19 1024.14 1024.05 1023.95 1023.78 1023.54 1023.26 1023.04 1022.85 1022.66
1022.91 1022.06 1021.35 1020.44 1019.78 1019.56 1019.48 1019.64 1019.97 1020.42 1021.11 1021.68 1021.54 1021.66 1021.65 1021.54 1021.38 1021.31 1021.46 1021.69 1021.85 1022.10 1022.40 1022.81 1023.43 1023.78 1023.92 1024.03 1024.19 1024.29 1024.37 1024.33 1024.16 1023.97 1023.99 1023.96 1023.94 1023.83 1023.81 1023.64 1023.43 1023.27 1023.01
1023.58 1022.88 1022.10 1021.27 1020.77 1020.37 1020.21 1020.50 1021.19 1021.54 1022.35 1022.70 1023.27 1023.08 1022.77 1022.95 1022.56 1022.24 1022.42 1022.55 1022.54 1022.65 1023.07 1023.31 1023.63 1023.98 1024.17 1024.22 1024.16 1024.02 1024.09 1024.07 1024.06 1023.96 1023.77 1023.72 1023.70 1023.67 1023.66 1023.66 1023.65 1023.51 1023.28
1023.96 1023.29 1022.75 1022.27 1021.97 1021.19 1021.19 1021.69 1022.18 1023.54 1023.54 1023.78 1024.04 1024.31 1024.19 1024.12 1023.84 1023.82 1023.59 1023.48 1023.49 1023.56 1023.83 1023.84 1023.98 1024.14 1024.28 1024.29 1024.01 1023.99 1023.78 1023.60 1023.74 1023.72 1023.83 1023.80 1023.75 1023.80 1023.80 1023.74 1023.68 1023.59 1023.43
1025.29 1024.72 1024.04 1023.33 1022.79 1022.48 1022.02 1022.59 1023.51 1024.06 1024.93 1025.30 1025.23 1024.95 1024.89 1024.97 1025.22 1024.92 1024.96 1024.92 1024.58 1024.47 1024.61 1024.68 1024.58 1024.53 1024.59 1024.63 1024.79 1024.73 1024.41 1024.01 1023.70 1023.63 1023.68 1023.64 1023.54 1023.61 1023.58 1023.52 1023.48 1023.39 1023.31
1025.71 1025.92 1025.04 1024.33 1023.87 1023.68 1023.57 1023.29 1023.71 1024.41 1025.36 1025.80 1026.32 1026.23 1026.17 1025.89 1026.10 1026.06 1026.15 1025.98 1025.83 1025.39 1025.51 1025.42 1025.23 1025.25 1025.29 1025.11 1025.02 1025.29 1025.32 1025.16 1024.65 1023.68 1023.57 1023.58 1023.61 1023.61 1023.27 1023.14 1023.07 1023.05 1022.99
1026.46 1026.49 1026.10 1025.51 1024.82 1024.54 1024.41 1024.69 1024.84 1025.50 1026.40 1027.20 1027.39 1027.38 1027.14 1026.85 1026.91 1026.91 1026.78 1026.86 1026.96 1026.94 1026.55 1026.25 1025.99 1026.08 1025.88 1026.09 1025.59 1025.62 1025.78 1025.93 1025.72 1024.59 1023.85 1023.52 1023.53 1023.63 1023.53 1023.29 1023.02 1022.75 1022.57
1026.31 1026.58 1026.56 1026.26 1025.87 1025.74 1025.45 1025.52 1026.02 1026.59 1027.36 1027.65 1027.86 1027.77 1027.80 1027.73 1027.76 1027.70 1027.49 1027.63 1027.57 1027.93 1027.77 1027.31 1026.99 1026.84 1026.96 1026.94 1026.82 1026.58 1026.19 1025.98 1025.86 1025.98 1024.51 1023.89 1023.62 1023.20 1023.04 1022.93 1022.70 1022.44 1022.08
1026.83 1026.77 1026.81 1026.70 1026.56 1026.60 1026.36 1026.54 1026.68 1027.23 1027.98 1028.30 1028.55 1028.73 1029.00 1028.80 1028.63 1028.49 1028.51 1028.48 1028.34 1028.46 1028.75 1028.70 1027.80 1027.63 1027.67 1027.53 1027.55 1027.44 1027.28 1027.09 1026.65 1026.44 1025.61 1024.65 1024.01 1023.02 1022.75 1022.52 1022.34 1022.01 1021.58
Wind_Speed
6 6 9 12 12 10 9 9 8 8 9 10 10 11 11 10 9 9 8 7 7 11 13 11 10 10 11 11 10 10 10 11 13 12 12 13 13 12 12 12 9 7 11
6 8 11 12 13 11 9 8 7 8 9 9 10 10 10 9 8 7 6 4 11 12 10 9 10 10 10 10 10 10 9 10 9 8 10 10 10 11 11 12 11 10 14
6 9 11 12 13 11 9 9 8 8 8 8 9 9 9 8 7 6 4 9 10 10 9 8 8 9 10 10 10 9 8 9 8 6 8 4 4 9 10 11 12 12 12
6 8 9 11 12 12 12 10 8 8 7 7 7 6 6 6 6 6 6 7 7 8 12 9 7 8 9 9 9 7 7 8 8 8 4 3 3 7 9 10 11 12 12
6 6 7 11 12 11 10 12 11 10 9 8 7 6 5 6 6 5 4 4 8 9 14 8 7 8 8 9 8 7 6 7 8 6 5 4 3 5 9 9 8 10 10
4 4 6 12 11 11 11 11 11 10 10 9 9 8 8 9 7 6 6 7 7 10 11 6 6 7 8 8 7 7 6 7 8 5 5 6 4 6 7 5 6 9 9
5 5 5 10 11 11 10 10 10 10 10 9 8 8 9 10 9 8 6 3 3 10 8 5 5 6 7 7 6 6 7 8 5 5 5 5 5 7 8 8 5 7 10
5 6 6 9 9 10 11 11 11 11 11 10 9 9 11 11 9 7 6 4 1 0 2 3 4 5 6 6 6 6 7 7 5 5 5 5 6 6 6 7 7 5 7
4 2 2 3 6 9 10 11 11 10 10 9 9 9 8 8 10 7 4 3 1 2 3 2 3 5 5 6 6 7 7 7 5 3 4 3 6 5 5 6 7 7 3
5 3 3 3 5 7 4 7 8 9 9 9 7 6 7 7 9 9 7 4 4 1 2 0 0 3 5 6 7 6 7 7 5 4 3 3 6 3 3 3 3 2 2
6 6 4 3 4 5 9 5 7 8 9 9 7 8 7 2 5 7 5 5 3 3 4 4 3 3 7 8 9 8 7 3 3 3 2 6 5 4 3 2 3 2 2
10 9 7 6 5 5 4 4 4 5 3 4 5 6 3 4 5 6 5 4 2 2 4 5 4 8 6 3 3 6 3 4 3 3 2 7 7 5 5 3 4 3 2
6 6 8 8 8 6 6 4 3 2 2 2 3 3 2 2 3 3 3 2 2 4 3 4 5 3 3 3 3 3 3 3 2 2 5 9 8 7 7 5 6 4 2
9 8 9 8 7 7 6 6 3 3 3 3 2 3 3 2 4 3 3 3 3 3 4 4 2 3 3 2 2 3 3 3 2 2 4 9 9 9 9 7 6 4 4
8 9 9 8 7 6 5 3 2 2 2 3 3 4 3 3 3 4 4 3 3 3 3 4 4 2 1 0 1 1 2 3 3 2 2 8 10 10 10 9 7 6 6
10 11 12 10 7 5 3 5 4 2 0 0 1 1 3 4 4 4 3 4 3 3 2 2 3 3 2 1 2 1 2 2 3 3 3 4 9 10 11 10 8 8 7
7 8 11 12 11 7 5 4 3 3 3 3 3 3 3 2 2 3 4 4 4 4 4 4 2 1 1 1 3 3 3 4 4 4 3 3 4 8 9 8 7 9 10
10 12 9 9 11 11 9 7 6 7 7 7 7 6 7 5 3 1 1 2 2 1 2 2 3 1 1 1 2 3 3 3 5 5 4 4 4 4 7 9 9 8 9
8 8 10 10 11 10 12 11 12 13 11 10 10 10 13 12 9 5 4 4 4 3 3 3 3 3 2 1 3 3 4 4 5 3 5 5 5 5 4 9 11 11 12
9 8 8 8 11 7 7 10 10 11 10 10 11 11 14 12 14 10 8 7 5 4 3 3 3 2 1 2 3 3 4 4 4 5 5 4 5 5 5 5 4 5 12
10 10 10 11 10 7 6 4 7 6 7 10 10 14 14 13 14 12 8 9 8 7 5 4 2 2 1 1 2 2 3 4 5 5 3 4 5 5 5 5 4 3 5
9 9 10 10 10 8 4 4 4 4 7 8 8 12 13 14 13 12 11 9 10 7 8 6 5 3 2 3 3 2 4 5 3 2 2 4 6 3 5 5 6 6 5
9 9 9 8 9 9 7 5 5 5 4 6 9 9 12 13 13 12 12 10 9 8 8 8 8 7 4 3 3 1 4 3 4 2 3 3 4 4 5 5 6 6 6
7 7 8 8 9 9 8 11 15 10 9 3 4 5 8 12 12 12 12 11 10 7 9 7 7 4 4 4 3 2 1 1 3 6 2 4 3 5 5 4 5 6 6
6 6 6 7 10 9 9 9 10 12 7 3 4 8 8 9 11 11 11 11 11 8 8 9 8 9 6 4 3 4 2 1 2 3 8 4 4 4 4 5 5 5 6
6 7 6 7 9 9 10 11 12 12 7 8 7 7 5 5 7 10 9 8 8 8 9 8 7 8 7 4 3 4 3 3 4 4 5 10 11 6 4 5 5 5 5
Wind_Direction
243 188 184 170 167 158 154 145 130 112 106 106 103 102 103 103 120 127 124 120 115 86 73 64 59 59 60 59 59 63 59 54 54 55 55 66 71 67 62 55 49 50 64
165 174 174 175 175 169 162 150 136 127 125 121 118 114 110 105 93 81 89 102 93 78 70 63 54 50 49 49 49 51 52 53 55 57 57 49 61 67 63 52 49 51 51
157 170 172 176 176 174 166 154 151 147 141 130 124 122 119 113 105 87 62 113 95 92 81 66 54 53 46 40 35 39 38 36 46 72 67 59 64 77 70 62 57 54 52
157 166 173 175 177 177 168 162 158 155 149 140 129 118 107 101 105 95 87 106 108 103 91 63 53 46 41 39 31 30 38 43 49 63 50 45 39 80 74 67 63 58 48
159 165 175 178 180 179 178 164 164 165 162 160 155 147 135 122 109 114 106 95 99 87 70 54 43 37 31 30 30 32 38 56 57 57 63 53 29 90 74 74 73 73 64
160 165 180 183 185 186 179 171 171 178 176 174 173 172 169 142 118 121 123 134 120 86 76 64 41 32 29 28 28 35 46 68 65 55 51 39 25 107 89 95 107 106 86
171 174 174 190 190 190 185 178 178 187 191 188 189 193 173 145 141 135 130 118 113 89 73 47 37 31 26 27 36 43 72 73 64 54 45 35 25 64 59 52 92 98 85
180 181 181 188 189 192 191 187 190 192 194 193 194 203 170 165 161 159 165 211 48 138 326 344 18 32 25 22 35 61 81 88 69 59 39 20 17 43 35 22 13 30 42
13 334 279 218 210 195 193 190 190 196 198 200 207 206 192 179 173 158 166 122 228 354 49 333 9 31 22 27 33 50 68 72 72 45 39 14 350 31 28 22 12 23 2
24 360 318 300 230 228 225 204 195 196 195 202 203 210 206 193 170 166 163 173 198 189 108 39 76 43 26 20 23 41 62 59 52 33 20 350 11 28 25 28 12 14 341
3 353 328 267 240 242 231 207 215 209 204 209 197 215 212 141 179 170 167 183 190 141 127 115 114 66 60 24 22 27 38 30 30 22 6 344 352 342 343 6 344 326 295
350 343 358 327 255 221 223 225 218 219 227 223 202 213 198 191 165 163 178 170 164 115 119 138 114 89 58 33 5 11 18 16 14 358 346 344 341 319 308 321 316 308 302
314 337 341 334 317 247 219 186 189 193 177 260 252 191 169 124 123 126 136 143 124 120 93 84 82 75 74 57 20 4 2 12 357 347 335 342 336 323 307 307 297 297 305
341 329 328 332 321 283 236 217 165 169 170 181 189 129 137 148 148 152 153 161 159 156 149 136 134 127 95 47 22 0 354 353 343 339 328 337 331 322 313 299 292 285 285
346 330 329 323 323 309 235 207 160 168 202 187 186 159 145 167 173 162 173 168 174 168 177 174 156 158 159 150 58 15 334 333 328 312 309 324 330 326 317 290 276 279 280
342 342 331 331 326 301 248 164 173 163 208 331 5 258 196 185 181 179 160 168 179 188 157 167 172 175 191 319 307 307 285 294 305 312 313 320 321 326 327 298 283 280 274
331 325 350 347 344 7 95 97 85 81 67 33 358 329 304 286 190 172 169 182 194 179 157 131 101 126 169 64 308 325 326 312 299 288 280 273 296 306 314 332 332 309 282
344 352 354 5 9 25 51 65 67 56 54 41 30 30 26 32 33 67 10 352 13 136 148 139 136 199 265 306 317 316 311 314 309 303 305 303 301 300 305 309 322 321 318
345 355 5 10 21 34 53 62 62 60 52 39 37 29 23 28 22 40 49 45 36 55 56 61 48 15 351 336 283 292 292 287 281 295 289 292 290 294 309 309 316 320 314
353 0 13 25 23 26 61 67 60 59 53 48 36 32 33 25 25 32 34 32 32 54 58 64 72 63 1 326 300 288 263 263 264 254 253 262 263 269 275 288 302 307 311
13 19 19 31 12 37 45 45 57 48 50 52 49 39 36 32 32 29 35 34 23 41 31 34 63 49 42 354 344 328 285 253 261 270 289 278 287 292 291 289 290 296 302
5 359 14 31 33 38 60 77 70 83 57 54 44 46 42 39 32 38 33 30 32 35 28 20 24 20 36 19 24 237 343 329 351 344 296 251 253 262 274 272 278 281 284
27 358 13 24 44 45 48 86 92 77 53 43 33 41 36 43 41 40 35 37 33 38 30 20 16 17 4 15 65 21 333 320 318 329 329 330 308 276 264 263 272 269 267
28 5 10 27 45 48 56 74 78 86 89 55 60 50 47 43 44 41 43 41 39 29 33 23 23 15 14 12 343 52 180 165 316 320 338 318 331 295 293 280 264 261 257
52 36 18 35 49 46 57 74 87 86 82 65 53 61 44 41 40 37 41 39 39 29 24 32 29 34 25 21 12 342 336 250 238 268 305 317 302 273 265 254 258 261 254
50 53 41 57 58 51 66 68 79 84 80 75 56 55 31 30 35 33 31 34 39 34 20 7 21 33 24 39 20 15 12 339 332 311 297 307 299 292 282 277 263 261 256